COSMOS 2499 DEB, 49940

Orbit data source: Space-Track

COSMOS 2499 DEB, 49940 is space debris in LEO originally from a launch on Fri, 23 May 2014 UTC launched from the Plesetsk Missile And Space Complex (PKMTR). Debris objects in space refer to the collection of defunct objects orbiting the Earth. Examples of debris include non-operational satellites, rocket bodies, and fragments generated from explosions, collisions, or faulty payload assembly.

Loading next visibility...
Identifier
49940, 2014-028X
Orbit
LEO
Country
Flag of CISCIS
Related business
Manufacturer
TsNIIKhM
Mission
Spacecraft
Bus & Motor
Unknown
Mass
Unknown
Launch date (UTC)
2014-05-23 (12 years ago)
Launch vehicle
Unknown
Launch site
Plesetsk Missile And Space Complex (PKMTR)
Object type
Payload
Rocket body
Debris
Shape & HBR
Unknown shape, 0.1 m
Radar Cross Section
Small (<0.1 m²)

Expand to show TLE details & history
Last TLE update: 21 hours ago

TLE from 21 hours ago
0 COSMOS 2499 DEB
1 49940U 14028X   25349.73381722  .00002208  00000-0  54755-2 0  9997
2 49940  82.4897 352.0272 0307230 322.6713  35.3399 13.04430643195089
Epoch: 2025-12-15T17:36Z
TLE epoch observation values (Epoch: 2025-12-15T17:36:41.807Z)
Latitude
0.00002°
Longitude
3.22487°
Altitude
1,058.996 km
Speed
7.412 km/s
True Right ascension
23h 28m 06s
True Declination
0° 00' 00"
Sunlit
Object was in daylight at epoch
Visualization orbit readout
Latitude
Unknown
Longitude
Unknown
Altitude
Unknown
Speed
Unknown
Apparent Right ascension
Unknown
Apparent Declination
Unknown
Sunlit
N/A
Visualization observer readout
Local Sidereal Time
12:49:47
Azimuth
Unknown
Elevation
Unknown
Doppler factor
Unknown
Orbital elements
Apogee altitude
1,476.155 km
Perigee altitude
1,007.926 km
Semi-major axis
7,620.178 km
Eccentricity
0.03072
Inclination
82.4897°
RAAN
352.0272°
Arg. of periapsis
322.6713°
True anomaly
37.4416°
Mean anomaly
35.3399°
Eccentric anomaly
36.3841°
Mean motion
3.26284 °/min
Orbital period
110.33 mins
BSTAR
0.0054755
Loading maneuver chart data...
Computing Atmospheric mass density...
Loading historical data...
Loading historical data...
Loading historical data...
Loading historical data...
Loading historical data...
Loading historical data...
Loading historical data...

Documentation

Showing up to 5 results
|